THORAD AGENA D DEB, 9668

Orbit data source: Space-Track

THORAD AGENA D DEB, 9668 is space debris in SSO originally from a launch on Wed, 08 Apr 1970 UTC launched from the Air Force Western Test Range (AFWTR). Debris objects in space refer to the collection of defunct objects orbiting the Earth. Examples of debris include non-operational satellites, rocket bodies, and fragments generated from explosions, collisions, or faulty payload assembly.

Loading next visibility...
Identifier
9668, 1970-025NM
Orbit
SSO
Country
Flag of USUS
Related business
Manufacturer
Unknown
Mission
Spacecraft
Bus & Motor
Unknown
Mass
Unknown
Launch date (UTC)
1970-04-08 (56 years ago)
Launch vehicle
Unknown
Launch site
Air Force Western Test Range (AFWTR)
Object type
Payload
Rocket body
Debris
Shape & HBR
Unknown shape, 0.1 m
Radar Cross Section
Small (<0.1 m²)

Expand to show TLE details & history
Last TLE update: 15 hours ago

TLE from 15 hours ago
0 THORAD AGENA D DEB
1 09668U 70025NM  25301.45130475  .00091485  00000-0  54022-2 0  9995
2 09668 100.0825 228.1571 0016057 201.9064 158.1473 15.10985236547863
Epoch: 2025-10-28T10:49Z
TLE epoch observation values (Epoch: 2025-10-28T10:49:52.730Z)
Latitude
0.00001°
Longitude
28.64878°
Altitude
546.487 km
Speed
7.583 km/s
True Right ascension
15h 12m 37s
True Declination
0° 00' 00"
Sunlit
Object was in daylight at epoch
Visualization orbit readout
Latitude
Unknown
Longitude
Unknown
Altitude
Unknown
Speed
Unknown
Apparent Right ascension
Unknown
Apparent Declination
Unknown
Sunlit
N/A
Visualization observer readout
Local Sidereal Time
21:14:17
Azimuth
Unknown
Elevation
Unknown
Doppler factor
Unknown
Orbital elements
Apogee altitude
541.399 km
Perigee altitude
519.213 km
Semi-major axis
6,908.443 km
Eccentricity
0.00161
Inclination
100.0825°
RAAN
228.1571°
Arg. of periapsis
201.9064°
True anomaly
158.21566°
Mean anomaly
158.1473°
Eccentric anomaly
158.18149°
Mean motion
3.77984 °/min
Orbital period
95.24 mins
BSTAR
0.0054022
Loading maneuver chart data...
Computing Atmospheric mass density...

Documentation

Showing up to 5 results
|